This is the latest recevied weather packets stored in our database for station/object KJ6HT. If no packets are shown the sender has not sent any weather packets the latest 10 day(s).
| Time | Temp. | Humidity | Pressure | Rain* | Wind** | Luminosity | Snow |
|---|---|---|---|---|---|---|---|
| 1788621320 | 20.56° C | 65% | 1012.9 hPa | 0 mm | - | - | - |
| 1788620415 | 19.44° C | 66% | 1013 hPa | 0 mm | - | - | - |
| 1788619513 | 18.89° C | 67% | 1012.7 hPa | 0 mm | - | - | - |
| 1788618611 | 18.33° C | 71% | 1012.7 hPa | 0 mm | - | - | - |
| 1788617708 | 16.67° C | 75% | 1012.6 hPa | 0 mm | - | - | - |
| 1788616806 | 15° C | 86% | 1012.5 hPa | 0 mm | - | - | - |
| 1788615905 | 13.89° C | 90% | 1012.3 hPa | 0 mm | - | - | - |
| 1788615002 | 14.44° C | 90% | 1012.2 hPa | 0 mm | - | - | - |
| 1788614166 | 14.44° C | 90% | 1012.2 hPa | 0 mm | - | - | - |
| 1788613319 | 14.44° C | 90% | 1012 hPa | 0 mm | - | - | - |
| 1788612358 | 15° C | 89% | 1012 hPa | 0 mm | - | - | - |
| 1788611458 | 15° C | 88% | 1011.9 hPa | 0 mm | - | - | - |
| 1788610555 | 15.56° C | 89% | 1011.9 hPa | 0 mm | - | - | - |
| 1788609652 | 16.11° C | 88% | 1011.9 hPa | 0 mm | - | - | - |
| 1788608749 | 16.11° C | 87% | 1012 hPa | 0 mm | - | - | - |
| 1788607851 | 16.11° C | 88% | 1011.9 hPa | 0 mm | - | - | - |
| 1788606995 | 16.11° C | 88% | 1011.9 hPa | 0 mm | - | - | - |
| 1788606078 | 16.11° C | 86% | 1012 hPa | 0 mm | - | - | - |
| 1788605143 | 16.67° C | 86% | 1012.1 hPa | 0 mm | - | - | - |
| 1788604243 | 16.67° C | 85% | 1012 hPa | 0 mm | - | - | - |
| 1788603350 | 16.67° C | 86% | 1012 hPa | 0 mm | - | - | - |
| 1788602447 | 16.67° C | 85% | 1012.1 hPa | 0 mm | - | - | - |
| 1788601540 | 16.67° C | 85% | 1012 hPa | 0 mm | - | - | - |
| 1788600638 | 16.67° C | 83% | 1012.1 hPa | 0 mm | - | - | - |
| 1788599771 | 17.22° C | 83% | 1012.1 hPa | 0 mm | - | - | - |
* Rain latest hour (hover to see other rain measurements)
** Current wind speed in m/s (hover to see current wind gust speed)